Location: Fort Wayne
(41.1310°N, 85.1290°W)
Time: 05:26:46
(UTC-04:00)

Tiros 1 despin weight - Visible Passes

Search period start: 19 April 2014 00:00
Search period end: 29 April 2014 00:00
Orbit: 603 x 653 km, 48.2° (Epoch: 18 April)

Date Brightness Start Highest point End Pass type
(mag) Time Alt. Az. Time Alt. Az. Time Alt. Az.
25 Apr ? 06:00:20 10° S 06:03:10 17° SE 06:06:00 10° E visible
27 Apr ? 04:59:14 10° SSE 05:01:03 12° SE 05:02:52 10° ESE visible
28 Apr ? 05:17:24 13° S 05:20:24 25° SE 05:24:06 10° E visible
